Wind_Speed
15 13 14 14 15 14 12 11 9 8 9 10 10 13 15 13 7 3 12 17 20 22 25 30 35 39 43 44 46 52 56 60 64 65 63 66 65 65 62 61 60 59 58 56 55 56 55 56 56
17 15 14 13 13 13 14 12 9 6 7 7 9 11 14 15 14 9 6 11 14 21 23 27 32 38 42 45 47 51 56 59 61 64 65 65 65 66 66 67 67 66 63 61 60 60 60 60 60
17 16 15 13 12 11 13 14 14 11 7 6 7 8 13 17 15 15 12 11 12 14 20 26 29 33 39 44 48 50 53 59 61 62 67 66 65 65 69 67 68 69 70 69 67 65 63 63 63
17 15 14 14 12 11 11 11 13 12 8 7 6 5 9 15 19 17 17 17 16 16 17 20 24 29 33 38 45 49 53 55 60 63 65 69 68 68 69 70 69 70 70 70 71 71 68 66 67
16 14 12 13 14 10 11 9 10 14 12 5 5 7 8 11 18 21 21 21 20 19 18 17 22 26 28 29 36 43 49 54 59 61 64 67 68 69 72 72 71 73 73 74 74 75 73 72 71
17 17 13 13 13 13 11 8 9 10 13 11 7 8 7 10 10 15 20 21 22 23 23 22 19 19 21 27 32 36 41 46 53 58 62 66 68 69 72 74 75 74 74 76 76 77 77 78 77
15 17 16 14 13 15 12 10 7 10 11 13 13 8 9 12 12 12 13 17 20 21 23 25 26 26 26 24 23 26 31 39 44 49 55 61 64 69 71 73 74 76 77 78 79 78 78 79 80
16 16 16 16 15 16 16 12 9 8 13 15 14 13 8 14 14 15 17 17 18 21 21 22 24 28 30 31 31 28 28 30 34 39 43 47 54 62 66 68 72 76 78 78 78 78 78 80 81
18 17 17 16 16 16 17 16 13 10 13 20 21 20 16 9 9 13 16 17 19 21 23 24 25 25 25 29 34 36 34 32 32 33 35 39 39 40 48 56 62 68 69 70 74 78 81 82 82
19 17 16 16 16 17 17 17 16 13 16 19 23 25 23 22 21 18 17 18 19 20 23 27 26 26 26 26 27 29 35 38 38 38 38 39 40 40 41 42 43 49 57 62 67 69 68 69 71
18 17 17 16 16 16 19 19 17 18 19 20 23 28 29 27 24 24 25 24 25 27 26 24 25 27 27 27 27 28 29 30 36 41 42 43 46 45 44 45 44 44 45 47 50 55 59 63 65
20 19 19 20 20 21 20 19 20 21 24 23 25 27 29 32 32 31 32 32 32 31 31 30 30 30 30 32 32 32 32 32 32 35 38 43 47 49 49 49 50 50 49 49 48 49 50 51 53
25 22 23 23 25 27 27 26 26 26 27 29 31 30 28 30 31 32 33 34 34 36 36 37 37 36 36 36 36 37 38 38 37 36 35 39 43 45 47 50 53 54 53 54 54 54 54 54 52
27 27 28 27 28 30 31 31 28 27 28 29 31 33 33 32 32 33 34 34 35 35 37 40 41 42 43 42 41 41 42 43 43 44 44 42 41 43 47 50 50 51 53 56 57 59 59 58 58
31 34 34 32 30 29 30 32 31 31 32 33 33 34 35 36 36 36 34 35 37 38 37 39 42 45 48 48 48 48 46 46 49 50 50 50 51 49 47 48 51 52 54 55 54 56 59 62 62
32 34 36 35 34 34 35 41 36 36 35 37 37 37 35 36 38 40 39 35 32 33 36 38 40 44 47 50 52 54 55 55 54 54 55 56 55 55 54 54 54 53 53 54 57 59 59 57 59
35 37 39 38 37 36 36 43 42 39 39 41 40 38 35 36 39 40 41 42 42 43 44 45 47 49 52 55 59 61 62 62 62 62 62 60 61 62 61 61 62 61 60 60 57 57 60 59 60
37 38 39 43 41 39 39 38 42 42 42 40 37 38 40 44 45 44 43 46 49 50 52 53 55 58 58 59 59 62 67 70 71 70 69 69 69 67 67 67 68 68 67 68 66 63 62 63 64
39 39 41 47 44 40 41 40 42 45 44 42 45 46 48 50 52 54 55 54 55 57 57 57 60 64 66 66 67 69 70 72 74 75 76 76 76 77 76 74 75 75 75 74 72 70 69 68 68
42 41 43 42 44 40 41 40 42 45 48 49 49 51 50 53 57 60 63 65 65 66 68 67 69 71 75 75 76 76 78 79 79 79 83 83 84 84 84 85 82 80 81 81 80 79 76 76 74
43 43 41 39 42 40 41 43 51 52 55 57 56 57 59 62 64 63 64 68 72 76 74 73 76 79 79 83 85 87 89 86 87 87 87 87 89 92 92 92 90 89 88 89 88 87 87 86 83
42 42 40 40 40 43 45 47 49 57 62 63 62 61 62 65 64 65 66 72 71 76 82 83 79 80 79 84 89 94 94 94 96 95 97 97 90 90 98 99 100 97 96 95 96 96 95 94 93
45 46 44 44 48 49 47 47 44 51 54 55 57 56 58 59 63 65 58 58 70 73 72 77 75 76 76 84 74 76 85 89 88 88 87 90 98 107 108 100 101 105 106 103 103 103 104 103 103
48 53 53 48 48 42 57 58 58 60 61 69 62 68 73 79 82 76 70 67 68 71 71 78 78 82 83 85 85 84 85 88 89 92 93 89 88 89 98 102 104 106 108 113 111 111 110 111 111
53 51 53 53 58 56 59 57 64 70 72 82 88 89 87 82 85 76 72 70 73 75 78 83 87 90 91 96 98 94 90 89 92 95 96 98 99 103 96 98 106 110 111 116 118 120 119 117 116
60 59 63 58 60 62 63 63 67 65 71 76 80 87 91 89 76 79 76 77 85 88 87 95 101 103 100 104 101 99 98 102 105 105 105 104 106 106 104 103 103 104 114 115 122 124 127 126 126
67 69 70 63 58 55 59 63 61 67 71 76 82 80 76 77 82 86 89 93 97 98 110 112 113 118 114 111 108 107 107 108 110 108 108 107 107 109 108 109 111 115 113 117 120 126 131 133 133
74 76 80 83 82 76 72 75 74 74 81 86 87 86 89 90 93 97 101 107 114 116 117 125 126 130 125 121 117 113 114 113 109 108 108 107 107 108 109 111 115 119 119 121 125 126 132 138 142
73 76 84 90 89 90 85 82 91 98 100 93 90 94 91 95 100 106 111 117 121 123 127 133 137 139 135 124 118 111 108 102 100 97 97 97 98 101 103 105 108 110 112 116 121 124 133 138 142
86 85 89 91 87 88 93 79 91 97 105 101 98 96 98 103 106 111 119 125 130 131 135 140 142 148 135 118 111 107 101 97 95 94 93 94 94 95 97 98 99 101 103 107 111 116 124 129 137
Wind_Direction
321 320 322 328 333 333 342 347 354 329 288 282 275 264 265 278 278 226 229 224 229 230 231 230 232 232 231 233 234 231 229 230 229 230 230 229 226 224 224 228 231 232 234 235 237 240 242 244 244
322 321 320 327 333 333 337 345 358 350 323 283 261 254 246 258 275 274 238 225 228 230 234 232 232 234 234 234 234 233 233 233 235 235 233 234 232 229 229 231 233 234 235 237 239 241 242 244 246
318 317 315 321 331 334 339 339 349 358 358 328 280 259 249 242 252 275 270 244 234 225 230 239 240 236 236 237 236 236 238 236 237 238 237 238 240 239 234 234 235 236 238 238 239 242 243 244 245
314 318 315 317 324 325 335 338 345 348 2 356 324 276 252 242 238 243 254 259 250 247 233 226 236 241 240 239 240 240 239 239 239 240 240 240 241 243 242 241 241 241 242 243 242 242 244 245 246
310 310 307 310 307 314 318 336 340 343 342 10 317 312 293 257 240 238 244 253 261 265 264 252 237 237 240 246 248 245 244 244 243 242 242 242 244 246 246 246 245 244 245 246 247 247 249 250 252
305 306 302 302 303 306 306 332 341 338 327 336 328 314 299 284 268 257 253 256 260 264 269 276 272 262 250 249 250 250 251 249 247 247 247 247 247 247 247 248 250 249 250 251 251 251 252 253 252
309 309 304 302 297 297 297 316 335 340 315 313 322 311 282 274 275 278 275 275 272 267 268 269 272 276 275 269 260 256 254 253 255 254 252 250 250 250 250 250 250 250 252 253 253 254 255 256 257
303 302 307 302 298 294 294 290 307 331 311 304 299 298 283 259 278 283 284 286 285 282 276 268 264 264 265 269 269 263 264 262 256 256 256 258 257 254 254 254 254 253 254 254 253 254 255 256 258
304 301 295 294 297 296 295 293 291 294 297 301 300 294 292 282 275 299 309 309 301 295 289 282 278 271 269 270 269 272 270 268 268 269 266 260 257 258 261 260 258 258 258 258 257 256 256 257 258
305 304 300 294 290 290 290 287 284 276 272 280 292 294 295 298 299 297 296 296 296 294 290 286 285 283 282 278 273 274 272 271 271 270 267 267 266 264 261 260 260 260 259 258 258 258 258 258 258
303 301 299 297 298 293 289 290 286 283 276 271 279 288 287 287 286 286 289 290 289 290 290 291 290 292 292 288 284 277 271 270 267 264 265 269 269 267 267 268 266 263 262 262 262 261 261 260 259
296 300 303 301 301 296 297 296 295 294 290 285 282 280 286 291 288 286 286 287 286 286 287 286 285 286 287 288 287 284 279 274 270 269 267 265 265 266 268 267 268 268 268 267 266 265 263 262 262
295 298 299 298 295 299 300 296 296 297 298 298 296 293 290 288 291 293 289 288 286 284 282 281 281 278 277 277 279 281 281 279 276 274 273 272 270 269 268 265 265 265 266 267 268 268 268 267 266
290 292 291 292 292 295 296 294 297 299 301 300 300 297 295 293 290 290 291 290 288 285 284 285 284 281 280 276 273 275 276 276 276 277 276 273 272 273 272 269 266 263 263 262 263 263 264 265 267
281 284 287 288 291 288 288 288 292 290 289 288 287 290 292 293 293 291 288 286 286 286 289 288 284 283 282 280 278 277 274 274 274 274 275 275 277 272 270 272 271 271 269 264 261 261 262 263 264
281 284 285 287 287 284 288 291 298 293 293 292 291 290 288 284 279 280 279 276 274 275 280 281 281 281 279 277 274 273 273 273 271 270 272 273 274 273 273 271 269 267 266 267 267 266 263 261 261
279 284 289 290 290 289 288 290 294 291 290 289 290 284 277 275 273 271 265 266 266 264 266 267 269 271 273 272 272 271 269 268 268 269 269 267 269 272 273 271 271 269 266 264 263 265 267 266 263
283 288 290 287 290 290 288 286 285 285 283 283 277 281 280 281 279 277 267 264 265 267 267 268 268 269 267 265 265 267 269 270 268 267 266 269 268 267 268 270 272 271 269 269 266 263 261 262 263
286 287 287 284 287 286 285 287 282 284 280 278 273 275 280 280 279 284 279 273 272 272 271 270 270 271 272 272 273 272 269 267 267 265 266 266 265 267 267 266 267 268 270 269 268 266 264 263 262
286 287 282 285 285 284 286 279 272 276 278 274 273 273 278 283 283 284 285 280 277 277 276 276 279 281 281 276 274 273 276 274 271 269 268 266 265 264 264 265 264 265 265 267 268 268 266 264 261
283 280 278 278 279 278 280 282 274 277 277 276 275 275 275 277 278 283 281 280 279 277 277 276 279 279 281 282 281 280 276 274 274 272 269 268 269 267 265 263 263 264 263 265 264 265 266 266 265
275 274 275 277 273 275 279 277 278 278 278 279 280 279 276 275 277 276 279 281 283 283 278 274 277 281 285 285 282 279 278 278 279 278 273 272 271 271 266 266 264 260 262 261 260 262 262 262 264
270 276 274 278 277 277 279 277 285 279 284 286 288 288 284 282 278 278 293 294 285 280 282 280 285 297 301 289 292 286 282 278 278 277 273 272 270 268 269 266 264 263 260 260 259 259 258 259 261
276 277 275 274 275 272 279 284 293 289 284 287 296 290 304 306 304 302 302 304 300 303 303 305 299 306 306 303 299 289 287 283 280 276 275 272 271 269 264 262 261 260 259 258 258 258 257 257 258
283 285 286 283 282 283 283 288 289 287 288 290 293 293 295 299 302 304 304 306 303 307 302 305 307 308 310 310 308 302 296 288 285 285 282 282 277 275 268 263 261 260 258 255 255 255 256 256 256
282 283 283 286 287 280 283 288 287 291 289 289 291 287 285 289 309 315 318 315 316 313 310 312 315 315 310 311 307 305 297 296 295 290 286 282 279 276 273 269 263 259 258 257 253 253 253 253 254
277 279 279 284 291 287 288 292 290 290 293 296 299 302 307 314 320 320 319 319 319 316 317 317 316 316 313 310 307 304 303 300 297 290 287 283 278 274 273 269 267 264 258 254 255 255 252 252 254
278 278 280 283 282 286 286 290 288 299 300 299 304 306 312 318 322 322 321 320 317 316 316 316 315 317 313 312 309 305 302 298 293 289 285 282 279 276 273 270 268 265 263 260 254 253 253 253 253
281 277 278 280 288 288 293 293 287 289 294 301 303 306 311 318 320 320 319 316 315 314 314 316 316 317 314 309 307 302 298 293 288 285 283 281 278 277 275 273 271 269 266 263 261 258 256 254 254
285 285 283 283 286 291 295 295 288 285 290 300 306 310 316 317 316 314 313 312 312 313 315 315 315 315 312 307 303 300 296 294 292 288 285 282 280 279 278 276 274 271 267 265 262 261 260 258 258
Height
10808 10808 10807 10806 10805 10803 10803 10803 10802 10801 10800 10799 10799 10799 10801 10801 10802 10803 10803 10804 10805 10807 10809 10812 10814 10817 10821 10825 10829 10832 10834 10837 10839 10842 10845 10849 10852 10856 10859 10861 10864 10866 10869 10872 10874 10876 10878 10879 10880
10806 10805 10805 10804 10804 10803 10802 10802 10802 10801 10799 10798 10797 10797 10798 10798 10798 10799 10801 10802 10804 10805 10806 10807 10809 10812 10814 10818 10821 10824 10828 10831 10834 10837 10838 10842 10845 10848 10850 10853 10857 10859 10862 10864 10867 10868 10870 10872 10874
10804 10803 10803 10803 10803 10802 10802 10801 10800 10799 10798 10797 10796 10797 10796 10797 10797 10797 10798 10799 10800 10802 10803 10805 10806 10807 10810 10812 10815 10819 10822 10824 10828 10830 10834 10836 10840 10843 10845 10846 10848 10850 10853 10855 10858 10860 10862 10863 10865
10802 10801 10801 10801 10801 10801 10801 10801 10800 10799 10798 10797 10795 10794 10794 10794 10795 10794 10794 10794 10796 10797 10799 10801 10803 10805 10805 10807 10810 10812 10814 10818 10821 10824 10827 10829 10831 10835 10837 10840 10842 10844 10847 10849 10851 10852 10854 10854 10856
10799 10799 10800 10799 10799 10800 10799 10800 10798 10797 10797 10797 10794 10793 10792 10792 10792 10791 10792 10793 10794 10795 10797 10799 10801 10803 10804 10806 10807 10808 10809 10811 10813 10815 10818 10821 10823 10826 10829 10832 10833 10835 10837 10839 10841 10843 10845 10847 10849
10799 10797 10797 10798 10797 10797 10798 10799 10798 10797 10795 10795 10794 10793 10792 10791 10791 10791 10791 10792 10794 10795 10796 10797 10799 10801 10802 10803 10804 10804 10805 10806 10807 10809 10811 10813 10815 10817 10819 10821 10823 10825 10828 10829 10831 10832 10835 10837 10838
10796 10796 10795 10795 10796 10795 10795 10797 10799 10798 10796 10794 10792 10792 10791 10789 10789 10790 10790 10790 10791 10792 10793 10794 10795 10795 10796 10797 10799 10800 10800 10800 10801 10803 10804 10805 10806 10807 10809 10810 10813 10814 10817 10818 10820 10821 10822 10824 10826
10794 10792 10791 10791 10792 10793 10794 10796 10798 10798 10794 10791 10790 10789 10790 10789 10789 10789 10790 10790 10789 10788 10788 10788 10789 10788 10789 10790 10791 10793 10793 10795 10795 10796 10797 10798 10800 10800 10800 10801 10802 10804 10806 10807 10807 10808 10810 10812 10814
10790 10790 10790 10789 10789 10790 10790 10792 10794 10796 10794 10789 10787 10786 10788 10790 10790 10790 10789 10789 10788 10787 10785 10784 10783 10784 10784 10784 10784 10784 10785 10786 10787 10788 10789 10788 10789 10790 10790 10791 10793 10793 10795 10795 10795 10797 10798 10800 10801
10787 10787 10786 10786 10786 10786 10787 10788 10790 10792 10791 10789 10785 10783 10784 10786 10786 10787 10788 10787 10785 10784 10783 10781 10780 10780 10780 10780 10780 10780 10779 10780 10780 10780 10779 10778 10778 10779 10780 10780 10781 10782 10782 10783 10784 10784 10784 10785 10786
10784 10784 10783 10782 10782 10783 10783 10784 10785 10786 10785 10785 10783 10778 10779 10781 10782 10781 10781 10781 10780 10779 10779 10779 10779 10777 10775 10775 10775 10775 10775 10774 10773 10773 10772 10771 10770 10770 10771 10770 10770 10771 10771 10772 10773 10773 10773 10774 10773
10781 10782 10781 10780 10779 10779 10780 10781 10781 10780 10779 10779 10778 10778 10776 10774 10776 10777 10776 10775 10775 10774 10773 10773 10773 10772 10772 10770 10768 10767 10767 10767 10766 10766 10765 10764 10763 10762 10762 10763 10761 10761 10761 10761 10761 10761 10761 10762 10761
10775 10777 10777 10777 10775 10774 10774 10775 10777 10777 10776 10774 10773 10773 10774 10773 10772 10771 10771 10769 10768 10768 10767 10766 10764 10764 10764 10764 10762 10760 10759 10758 10758 10757 10757 10755 10754 10753 10753 10753 10752 10752 10751 10751 10750 10750 10749 10749 10750
10771 10772 10771 10772 10772 10770 10768 10767 10770 10771 10770 10769 10767 10766 10766 10766 10766 10765 10764 10764 10762 10761 10760 10759 10758 10756 10754 10753 10753 10753 10751 10749 10748 10747 10746 10745 10744 10744 10742 10742 10741 10741 10741 10741 10740 10739 10738 10737 10738
10765 10765 10765 10766 10768 10766 10764 10762 10766 10765 10764 10763 10761 10760 10759 10759 10757 10756 10755 10755 10755 10753 10751 10750 10749 10747 10746 10744 10742 10741 10741 10740 10738 10736 10734 10733 10732 10732 10732 10731 10730 10730 10730 10728 10727 10726 10726 10727 10727
10760 10759 10758 10758 10759 10759 10757 10751 10757 10755 10756 10754 10754 10753 10753 10752 10750 10748 10745 10743 10743 10742 10741 10740 10738 10735 10733 10731 10730 10729 10726 10725 10724 10724 10722 10720 10719 10718 10717 10716 10716 10717 10716 10715 10715 10714 10714 10715 10714
10754 10753 10751 10751 10752 10754 10753 10745 10747 10747 10747 10745 10745 10745 10743 10740 10739 10738 10736 10734 10732 10729 10727 10726 10724 10723 10721 10718 10717 10715 10713 10711 10709 10707 10707 10707 10706 10705 10704 10702 10701 10699 10700 10699 10702 10702 10700 10701 10701
10748 10748 10746 10741 10745 10746 10746 10743 10735 10737 10736 10736 10737 10735 10734 10731 10729 10727 10724 10724 10722 10719 10716 10714 10711 10709 10706 10702 10701 10699 10698 10696 10695 10694 10690 10690 10689 10688 10688 10687 10685 10684 10685 10683 10685 10686 10685 10684 10684
10740 10741 10740 10733 10735 10738 10735 10735 10731 10727 10727 10726 10724 10723 10721 10721 10718 10716 10713 10712 10710 10707 10704 10701 10698 10695 10692 10690 10688 10686 10682 10678 10676 10674 10673 10672 10670 10669 10667 10667 10667 10667 10667 10667 10667 10668 10669 10668 10667
10731 10732 10729 10729 10727 10730 10729 10728 10723 10720 10718 10716 10714 10713 10711 10708 10705 10704 10700 10697 10696 10694 10690 10689 10686 10682 10680 10676 10671 10668 10666 10662 10660 10657 10654 10653 10649 10647 10646 10645 10644 10644 10645 10645 10646 10647 10648 10648 10649
10722 10720 10720 10721 10718 10720 10720 10721 10714 10711 10708 10706 10705 10702 10699 10695 10693 10690 10685 10681 10679 10676 10674 10671 10669 10666 10661 10657 10654 10650 10645 10641 10638 10637 10635 10632 10629 10626 10625 10622 10622 10620 10620 10622 10623 10625 10625 10625 10627
10711 10708 10710 10709 10710 10709 10708 10711 10708 10701 10697 10694 10692 10689 10685 10679 10677 10674 10671 10668 10663 10659 10655 10652 10651 10649 10644 10638 10633 10628 10622 10618 10615 10612 10611 10610 10608 10604 10601 10599 10597 10596 10596 10594 10596 10598 10600 10601 10603
10699 10697 10697 10698 10699 10701 10697 10694 10699 10694 10686 10682 10678 10674 10670 10665 10661 10657 10654 10649 10645 10640 10636 10634 10629 10623 10618 10615 10608 10605 10601 10595 10590 10585 10581 10578 10577 10577 10576 10571 10570 10569 10568 10568 10568 10567 10569 10573 10575
10688 10687 10686 10687 10687 10691 10684 10684 10692 10681 10675 10670 10663 10658 10651 10648 10643 10641 10633 10629 10625 10620 10615 10610 10605 10601 10594 10589 10583 10578 10572 10567 10563 10557 10553 10550 10547 10544 10541 10539 10538 10537 10537 10537 10537 10538 10539 10540 10543
10675 10674 10675 10677 10675 10680 10676 10676 10673 10664 10661 10655 10649 10644 10638 10634 10630 10625 10615 10610 10606 10600 10595 10590 10585 10576 10568 10559 10553 10548 10542 10538 10533 10527 10522 10516 10513 10510 10508 10507 10505 10503 10501 10502 10504 10505 10505 10507 10508
10662 10660 10657 10660 10662 10664 10662 10665 10659 10651 10644 10638 10632 10626 10620 10619 10611 10602 10593 10586 10578 10573 10567 10562 10557 10549 10541 10532 10524 10517 10509 10503 10495 10489 10485 10481 10476 10472 10470 10468 10468 10468 10467 10466 10466 10468 10469 10470 10472
10648 10644 10639 10639 10641 10644 10650 10648 10642 10634 10628 10618 10608 10602 10598 10590 10584 10577 10570 10562 10553 10545 10539 10532 10526 10519 10510 10502 10493 10485 10476 10469 10462 10453 10446 10441 10439 10434 10430 10428 10426 10428 10428 10428 10428 10429 10431 10433 10434
10629 10628 10624 10619 10621 10626 10633 10630 10624 10617 10605 10595 10586 10578 10570 10563 10556 10550 10542 10533 10527 10518 10511 10505 10496 10487 10477 10467 10458 10449 10442 10431 10422 10414 10407 10403 10398 10394 10390 10387 10384 10383 10383 10385 10389 10388 10388 10391 10391
10612 10614 10606 10598 10601 10598 10609 10618 10609 10595 10582 10572 10562 10555 10547 10539 10532 10524 10518 10512 10503 10491 10481 10472 10461 10450 10442 10431 10422 10413 10402 10392 10383 10375 10368 10363 10359 10354 10350 10347 10344 10342 10342 10343 10344 10346 10349 10349 10350
10594 10590 10584 10581 10581 10574 10572 10601 10579 10565 10558 10547 10536 10528 10519 10513 10506 10501 10494 10486 10478 10465 10451 10439 10429 10418 10407 10395 10385 10376 10364 10355 10347 10341 10335 10329 10323 10319 10314 10310 10307 10305 10304 10304 10304 10305 10305 10308 10309